Location: Newark
(45.4422°N, 16.2769°E)
Time: 01:37:48
(UTC+00:00)

Courier 1B - Pass Details

Date: 17 December 2019
Orbit: 962 x 1209 km, 28.3° (Epoch: 23 January)

Event Time Altitude Azimuth Distance (km) Brightness Sun altitude
Rises 17:30:33 0° 221° (SW) 3,714 11.3 -23.2°
Reaches altitude 10° 17:34:26 10° 199° (SSW) 2,809 10.2 -23.8°
Maximum altitude 17:38:09 15° 166° (SSE) 2,482 9.5 -24.5°
Enters shadow 17:40:01 14° 148° (SSE) 2,602 9.5 -24.8°
Drops below altitude 10° 17:42:00 10° 133° (SE) 2,910 - -25.1°
Sets 17:46:07 0° 112° (ESE) 3,925 - -25.8°
